Wind_Speed
35 48 60 45 30 34 34 35 35 35 35 33 30 31 27 38 41 43 30 33 30 28 24 21 22 18 14 14 16 17 16 16 14 14 12 9 8 9 6 4 10 15 14
42 43 51 51 47 40 33 36 40 42 43 44 44 43 41 46 45 43 40 45 40 32 32 27 27 25 22 18 17 16 18 18 18 16 16 13 13 8 9 15 11 16 11
61 54 54 53 50 45 49 48 47 49 53 54 54 57 47 46 45 46 40 45 43 37 39 34 30 30 27 25 21 21 19 19 19 20 20 17 14 14 10 16 19 18 20
66 68 69 64 64 64 67 61 58 55 59 62 63 62 65 60 55 52 47 51 45 44 42 40 35 32 32 32 28 23 23 22 21 19 19 20 19 12 23 21 21 19 18
72 71 71 71 70 69 69 65 59 57 62 66 69 70 69 69 62 53 57 55 57 51 47 46 42 39 36 37 32 29 28 25 25 22 22 19 24 21 22 18 20 18 20
70 69 70 69 66 64 64 63 68 70 64 64 74 75 74 76 74 72 63 52 57 57 54 50 47 41 38 37 34 31 32 30 26 22 25 26 26 25 24 23 23 22 20
71 76 74 72 72 72 71 70 68 69 73 70 76 80 80 78 77 75 70 60 55 58 55 53 54 49 44 38 44 42 38 36 34 29 30 30 35 29 26 24 21 21 20
75 78 86 88 83 80 80 80 79 76 76 75 78 79 83 84 80 78 73 69 63 59 60 56 56 55 47 46 47 47 44 43 35 34 33 30 27 26 19 18 21 19 19
82 82 80 84 84 77 78 82 83 81 81 82 81 80 83 84 84 84 77 72 68 63 65 65 58 58 57 51 50 46 45 44 43 38 36 34 31 29 20 21 18 23 22
58 55 52 53 54 58 58 64 72 80 84 85 86 85 84 84 87 85 83 76 69 64 66 68 65 65 59 60 50 40 51 46 44 41 39 40 36 33 30 22 25 22 26
50 46 42 43 42 43 46 48 55 60 67 76 84 89 89 88 90 87 86 83 75 64 68 68 64 66 67 65 65 49 48 41 49 47 49 47 44 37 32 21 31 28 25
51 43 45 43 41 40 42 44 43 47 55 61 69 83 91 93 91 92 89 86 86 78 74 70 67 64 70 70 65 66 61 59 54 55 49 51 44 40 35 32 34 34 26
41 44 45 46 48 45 43 42 44 47 50 54 59 67 82 91 92 94 92 89 84 83 82 80 73 67 66 75 75 67 60 60 62 57 58 55 51 51 47 40 41 38 31
23 29 31 32 36 44 52 50 45 43 47 48 53 61 68 83 90 94 95 92 88 90 84 89 81 72 66 70 74 71 67 60 59 61 55 56 58 55 54 51 47 45 41
28 34 47 46 41 41 39 44 50 46 46 46 49 55 64 70 85 92 96 96 94 97 92 91 83 70 70 68 66 69 72 62 52 53 61 56 55 58 54 52 46 42 43
34 38 55 46 43 41 37 38 42 46 48 46 47 50 58 66 75 87 96 99 99 102 98 92 86 76 72 69 66 67 69 65 67 62 53 50 47 48 45 47 47 47 48
41 50 61 45 38 36 35 34 34 35 42 47 47 47 53 59 64 79 92 100 101 105 101 99 89 89 80 76 73 67 75 77 75 65 60 60 60 58 53 53 55 52 51
45 49 57 48 35 35 33 33 31 28 34 42 46 47 50 55 60 70 86 97 104 109 110 104 100 92 91 86 82 75 71 74 75 69 68 68 67 64 63 63 58 55 49
48 48 55 51 35 30 33 31 31 30 34 38 43 52 50 50 57 66 80 94 104 109 115 109 110 102 92 89 88 86 80 74 71 66 64 62 64 59 59 61 57 53 53
46 47 49 46 42 26 27 29 32 32 34 35 39 43 48 51 55 64 73 88 100 108 113 116 111 109 102 95 93 87 86 80 74 70 72 68 68 60 57 56 59 57 53
45 46 46 51 43 40 29 26 28 27 26 22 26 31 40 48 54 60 67 78 93 103 110 115 114 118 114 107 96 94 88 88 80 72 72 72 71 67 61 56 51 52 49
37 43 44 44 43 47 33 24 23 20 22 20 20 23 26 31 41 51 60 69 83 97 105 112 116 120 121 119 111 103 95 92 93 89 82 79 77 76 69 64 63 60 56
42 38 37 41 41 41 43 34 28 23 20 19 19 18 21 25 31 41 50 62 72 84 100 108 116 120 122 121 115 110 103 96 97 96 90 88 84 81 77 75 72 67 68
38 37 33 35 35 32 36 40 31 24 17 16 17 20 22 26 28 30 36 48 64 76 87 100 109 117 122 122 119 118 118 107 103 95 98 96 93 95 90 85 81 72 73
37 37 32 33 34 32 27 30 31 24 20 18 19 19 19 21 24 26 30 35 47 58 70 81 97 109 116 120 120 121 122 124 120 116 112 102 96 91 89 92 85 77 73
38 33 35 29 31 29 26 25 23 19 14 15 12 13 14 15 15 18 25 31 36 45 54 64 74 86 102 111 115 118 118 119 121 118 111 107 104 100 97 92 89 83 78
Wind_Direction
281 254 262 263 267 261 264 264 263 260 254 241 226 232 226 252 241 251 246 244 236 241 236 235 245 241 225 197 196 201 212 226 226 218 212 204 211 208 212 242 249 283 261
264 260 261 262 262 250 258 276 264 259 254 247 227 222 234 238 239 239 241 242 243 231 235 231 236 236 229 218 205 204 213 225 230 234 234 227 225 226 257 213 245 246 283
259 264 270 268 269 257 270 275 272 266 254 248 240 232 236 230 230 232 242 244 242 233 233 235 230 236 233 228 215 221 224 208 236 232 238 244 230 242 253 242 242 274 295
265 265 266 272 274 269 271 267 263 255 250 245 243 238 232 239 237 229 230 238 235 233 229 227 230 234 231 233 230 234 232 221 234 238 243 239 235 248 257 255 254 277 286
277 273 271 273 273 268 265 266 260 252 245 243 240 239 236 233 233 238 234 233 231 230 230 228 226 228 234 232 234 240 235 226 229 234 244 236 239 243 261 269 276 275 285
276 274 273 271 269 265 261 258 253 252 246 240 238 236 235 235 233 234 234 237 233 227 226 228 225 223 227 231 231 238 239 239 234 234 237 243 245 251 256 265 277 276 278
282 280 273 267 266 264 262 258 253 250 246 239 238 234 234 234 233 234 233 235 233 229 226 226 225 223 223 227 232 242 239 240 239 243 238 242 247 249 253 266 266 270 274
278 276 278 276 271 266 263 260 255 251 248 247 240 236 235 234 232 233 232 229 235 232 227 225 223 225 220 222 222 230 233 237 238 240 238 235 241 239 250 262 267 279 281
286 283 278 276 275 268 262 258 255 251 247 244 243 239 233 233 232 231 230 228 229 230 227 227 225 224 221 219 225 234 232 235 235 238 237 241 238 242 252 275 276 277 276
289 287 283 278 275 272 263 257 253 250 247 243 240 238 233 229 228 229 227 225 223 225 225 227 226 223 218 219 215 233 225 233 233 234 239 239 241 246 251 255 276 280 273
290 292 291 287 280 274 270 262 254 250 247 243 238 235 232 228 225 226 225 220 218 222 219 221 226 217 217 219 219 216 224 224 230 232 232 236 242 246 235 253 265 266 276
286 287 294 295 290 281 275 271 262 255 251 245 239 234 230 226 224 222 224 221 218 220 217 216 218 217 217 219 226 224 222 222 228 231 233 238 238 236 244 243 245 259 266
282 287 292 292 291 288 284 277 268 260 252 250 241 235 232 227 223 221 220 220 217 215 217 215 221 221 220 220 222 226 226 224 227 233 235 236 241 241 244 246 253 259 265
335 330 315 310 305 291 281 274 270 263 257 251 247 238 233 229 223 221 219 217 214 211 214 216 220 220 217 218 219 221 224 226 231 232 236 240 240 243 244 247 250 256 259
340 333 330 313 307 304 299 277 265 260 256 252 247 243 234 231 225 220 217 215 212 210 210 215 215 216 217 215 218 220 222 224 228 233 235 237 241 241 245 243 244 251 256
327 326 320 306 289 294 298 293 267 255 251 251 248 242 238 232 228 220 217 215 211 209 210 212 212 215 216 219 221 221 217 216 219 222 233 235 239 240 237 241 249 255 255
332 340 339 321 278 278 288 298 275 260 254 248 249 247 240 233 230 223 218 216 213 209 211 210 211 217 221 220 222 225 219 218 219 229 226 227 224 224 234 242 247 252 255
334 334 338 332 302 276 278 291 291 277 260 252 246 245 239 234 229 225 219 217 214 212 212 212 211 211 219 225 228 229 226 225 225 226 230 230 230 232 236 242 247 250 251
327 335 336 348 324 294 279 282 286 284 272 256 246 241 239 237 231 226 220 218 217 214 213 215 213 214 214 219 225 230 226 226 226 227 224 230 229 228 234 240 243 248 250
330 331 336 341 352 327 294 289 283 285 277 266 245 239 237 235 234 229 223 221 219 217 216 216 217 213 215 220 222 223 230 230 228 229 228 230 228 230 238 241 243 247 249
324 326 334 340 344 349 337 314 296 288 281 266 239 233 235 238 237 233 228 224 221 220 218 218 217 218 216 218 218 224 223 230 229 226 228 227 229 233 240 243 244 241 242
318 324 335 338 341 347 341 333 321 297 283 269 258 250 247 246 241 238 232 228 224 223 222 220 219 220 222 223 222 222 224 226 232 233 230 232 235 242 242 244 251 248 244
304 316 325 332 340 343 350 342 334 320 283 260 256 259 251 244 241 237 233 230 227 226 225 222 222 221 223 224 225 222 224 225 228 231 237 240 240 243 247 251 255 250 252
304 302 313 321 328 342 352 347 335 339 317 269 264 256 250 254 256 249 239 234 232 229 226 225 225 224 223 225 225 225 224 227 228 229 231 234 238 245 249 252 255 250 253
293 296 300 306 315 324 342 350 348 327 329 323 291 268 253 246 236 238 237 236 232 231 231 231 229 227 228 227 227 229 228 230 231 235 237 238 240 240 245 250 253 251 251
293 285 292 289 301 307 320 325 332 345 336 334 322 288 257 246 242 240 241 238 234 230 230 229 229 230 232 231 231 231 231 233 234 234 235 236 239 241 243 245 248 251 250
Height
10904 10901 10900 10910 10909 10909 10907 10908 10909 10912 10913 10919 10920 10917 10910 10916 10919 10924 10928 10928 10930 10931 10932 10935 10937 10940 10941 10939 10940 10941 10942 10945 10947 10949 10950 10952 10953 10954 10954 10955 10957 10958 10958
10896 10897 10899 10900 10900 10896 10897 10896 10897 10900 10901 10904 10909 10908 10907 10908 10909 10914 10918 10918 10922 10924 10926 10929 10932 10935 10937 10937 10938 10939 10940 10943 10943 10947 10948 10949 10950 10951 10951 10952 10952 10954 10953
10882 10879 10877 10875 10875 10877 10877 10882 10886 10883 10883 10888 10892 10894 10899 10900 10900 10903 10908 10910 10913 10916 10919 10923 10927 10930 10932 10933 10934 10936 10937 10938 10941 10944 10944 10945 10947 10948 10948 10948 10949 10950 10950
10860 10861 10859 10857 10855 10856 10854 10861 10867 10863 10865 10868 10871 10877 10882 10884 10889 10893 10895 10897 10900 10905 10909 10912 10918 10922 10926 10928 10930 10931 10933 10934 10937 10940 10941 10940 10941 10943 10945 10944 10945 10945 10946
10836 10836 10836 10835 10834 10835 10836 10836 10840 10843 10845 10847 10849 10854 10860 10864 10870 10875 10879 10883 10890 10895 10899 10903 10908 10912 10917 10920 10923 10925 10927 10929 10932 10933 10935 10935 10935 10937 10938 10939 10940 10940 10940
10816 10813 10811 10810 10810 10811 10812 10813 10814 10818 10821 10825 10828 10831 10834 10842 10852 10856 10862 10870 10875 10881 10887 10892 10898 10903 10908 10911 10915 10918 10920 10922 10925 10927 10929 10930 10930 10932 10933 10934 10933 10934 10934
10793 10784 10786 10789 10787 10788 10789 10789 10789 10792 10795 10799 10802 10807 10812 10821 10832 10836 10846 10855 10860 10867 10874 10879 10884 10890 10896 10903 10906 10910 10914 10915 10917 10920 10922 10924 10925 10927 10927 10926 10928 10928 10928
10776 10768 10752 10747 10754 10758 10757 10757 10760 10764 10767 10771 10777 10783 10790 10797 10810 10817 10826 10836 10844 10852 10860 10865 10870 10877 10883 10890 10894 10898 10903 10907 10910 10911 10914 10918 10920 10921 10922 10922 10923 10923 10922
10735 10731 10728 10718 10710 10718 10721 10721 10724 10731 10736 10741 10748 10756 10764 10772 10783 10794 10806 10817 10826 10834 10842 10848 10854 10860 10869 10876 10885 10884 10892 10896 10900 10902 10906 10909 10912 10914 10915 10916 10917 10918 10917
10703 10700 10697 10691 10685 10681 10685 10686 10688 10693 10700 10709 10716 10726 10737 10747 10759 10769 10783 10797 10808 10816 10823 10828 10835 10843 10854 10860 10866 10871 10879 10885 10888 10893 10897 10900 10902 10904 10906 10908 10909 10911 10911
10684 10681 10677 10671 10666 10663 10661 10662 10663 10666 10669 10675 10685 10694 10709 10721 10733 10747 10759 10775 10786 10797 10804 10811 10817 10826 10838 10843 10851 10857 10865 10868 10876 10882 10886 10890 10892 10894 10896 10899 10903 10905 10905
10668 10665 10661 10657 10653 10649 10645 10644 10645 10646 10647 10650 10655 10664 10676 10691 10709 10724 10737 10753 10766 10780 10785 10795 10801 10809 10818 10825 10832 10841 10849 10855 10862 10869 10873 10878 10882 10885 10887 10890 10893 10895 10896
10653 10652 10648 10645 10640 10635 10633 10630 10629 10630 10630 10630 10635 10643 10651 10665 10683 10698 10714 10732 10748 10763 10766 10775 10786 10794 10802 10808 10816 10827 10836 10843 10850 10856 10861 10866 10871 10876 10879 10881 10882 10886 10888
10646 10643 10638 10632 10626 10621 10618 10615 10614 10613 10614 10617 10619 10624 10631 10642 10659 10678 10694 10709 10725 10738 10744 10756 10770 10779 10787 10793 10802 10812 10821 10830 10835 10841 10847 10853 10860 10863 10867 10869 10872 10876 10879
10642 10637 10631 10624 10617 10610 10602 10597 10598 10598 10599 10602 10605 10609 10616 10624 10636 10656 10671 10686 10703 10714 10725 10739 10755 10762 10769 10778 10788 10797 10805 10815 10820 10828 10833 10839 10844 10849 10854 10858 10862 10866 10867
10638 10630 10620 10608 10602 10597 10591 10582 10579 10582 10585 10588 10591 10594 10598 10607 10617 10635 10650 10664 10680 10692 10707 10723 10737 10744 10752 10763 10774 10782 10789 10798 10806 10815 10821 10826 10831 10836 10840 10845 10849 10853 10855
10628 10617 10602 10586 10580 10578 10576 10571 10565 10567 10570 10574 10577 10579 10583 10592 10601 10616 10631 10646 10661 10676 10689 10704 10718 10727 10735 10745 10755 10766 10773 10780 10792 10800 10804 10812 10815 10820 10827 10831 10836 10839 10842
10619 10608 10594 10577 10567 10563 10561 10558 10554 10553 10556 10558 10561 10565 10569 10576 10586 10596 10610 10627 10641 10656 10668 10682 10697 10708 10719 10727 10738 10749 10757 10765 10776 10784 10790 10795 10802 10808 10814 10818 10823 10827 10831
10610 10600 10586 10571 10557 10551 10550 10548 10545 10543 10542 10542 10545 10548 10553 10561 10568 10576 10587 10602 10617 10633 10646 10660 10675 10688 10699 10708 10719 10728 10739 10750 10759 10766 10772 10779 10786 10793 10798 10803 10809 10813 10818
10603 10594 10584 10570 10555 10546 10542 10538 10534 10532 10529 10527 10529 10534 10542 10548 10552 10561 10570 10581 10594 10610 10626 10641 10656 10670 10682 10692 10702 10713 10721 10732 10742 10749 10755 10761 10771 10778 10783 10788 10794 10799 10805
10598 10589 10579 10567 10556 10544 10536 10530 10525 10522 10521 10519 10521 10526 10531 10534 10538 10546 10556 10565 10576 10588 10604 10621 10636 10648 10660 10671 10683 10690 10702 10712 10723 10732 10738 10746 10755 10762 10768 10775 10780 10786 10790
10593 10584 10575 10566 10554 10544 10534 10527 10520 10515 10513 10514 10515 10518 10520 10523 10527 10531 10540 10548 10558 10570 10583 10598 10611 10626 10638 10650 10663 10673 10682 10694 10703 10712 10719 10728 10736 10744 10753 10760 10766 10773 10776
10585 10579 10572 10564 10555 10544 10533 10523 10517 10512 10509 10508 10509 10511 10511 10513 10515 10519 10524 10530 10539 10548 10558 10573 10586 10600 10615 10629 10641 10654 10666 10675 10684 10693 10702 10710 10718 10724 10733 10742 10750 10756 10761
10577 10572 10568 10561 10554 10546 10536 10525 10516 10511 10507 10506 10505 10506 10505 10506 10508 10509 10511 10515 10521 10527 10535 10548 10563 10575 10588 10606 10621 10635 10647 10654 10666 10674 10686 10693 10703 10709 10717 10725 10732 10739 10744
10567 10563 10560 10555 10550 10544 10537 10530 10521 10512 10508 10506 10503 10502 10501 10500 10500 10501 10501 10502 10505 10511 10521 10532 10543 10552 10564 10580 10595 10608 10619 10630 10641 10653 10667 10675 10683 10688 10697 10706 10712 10720 10727
10554 10553 10550 10548 10544 10540 10536 10531 10525 10517 10510 10505 10503 10501 10499 10498 10496 10495 10494 10494 10496 10499 10504 10512 10521 10531 10542 10556 10570 10582 10594 10606 10614 10626 10640 10650 10660 10669 10676 10686 10694 10703 10710